Hourly Weather Roundup
Issued by NWS Central Illinois

Home | Current Version | Previous Version | Text Only | Print | Product List | Glossary On
Versions: 1 2 3 4 5 6 7 8 9 10 11 12 13 14 15 16 17 18 19 20 21 22 23 24 25 26 27 28 29 30 31 32 33 34 35 36 37 38 39 40 41 42 43 44 45 46 47 48 49 50
000
NZUS43 KILX 211010
HWRILX

Area Weather Roundup
National Weather Service Lincoln IL
500 AM CDT THU SEP 21 2017

NOTE:  "FAIR" indicates few or no clouds below 12,000 feet, with
       no sigificant weather and/or obstructions to visibility.


CITY           SKY/WX    TMP DP  RH WIND       PRES   REMARKS
Bloomington    CLOUDY    74  70  87 NW8       30.03R
Champaign      CLOUDY    71  68  90 S5        30.02R
Danville       CLOUDY    67  67  99 CALM      30.00R
Decatur        MOCLDY    72  69  90 S3        30.01R
Effingham      PTCLDY    68  68 100 CALM      30.04R FOG
Flora          CLEAR     72  70  94 SE3       30.02R
Galesburg      CLOUDY    70  64  82 N6        30.00F
Jacksonville   CLOUDY    74  69  86 S3        29.98R
Lacon          CLOUDY    71  67  88 CALM      29.97S
Lawrenceville  CLEAR     70  69  97 CALM      30.03R
Litchfield     CLOUDY    69  69  99 S6        30.00R
$$


CITY           SKY/WX    TMP DP  RH WIND       PRES   REMARKS
Lincoln        CLOUDY    74  72  95 CALM      30.00R
Macomb         CLOUDY    71  65  83 NE6       30.01S
Mattoon        CLEAR     72  71  97 S6        30.01R
Mt Carmel AP   PTCLDY    68  66  96 E3        30.02R FOG
Olney-Noble AP PTCLDY    71  68  93 CALM      30.03R
Paris AP       CLEAR     69  69  99 SE3       30.04R
Peoria         CLOUDY    73  67  81 CALM      29.99S
Pontiac        CLOUDY    72  71  98 S5        30.00S
Rantoul        CLOUDY    71  70  97 SE3       30.01R
Robinson       CLEAR     65  65 100 CALM      30.03R FOG
Springfield    MOCLDY    75  71  87 S3        29.99R
Taylorville    CLEAR     70  69  98 CALM      30.00S
$$

...REGIONAL REPORTS...


CITY           SKY/WX    TMP DP  RH WIND       PRES   REMARKS
Chicago O`Hare CLOUDY    75  67  76 SW6       29.96R
Kankakee       CLOUDY    72  68  88 SW5       30.00R
Moline         RAIN      69  65  86 N12       29.94F
Mount Sterling CLOUDY    71  69  94 S5        29.96R
Mount Vernon     N/A     70  69  97 CALM      30.02R
Pittsfield     PTCLDY    74  71  91 S3        29.98R
Quincy         MOCLDY    77  70  79 S6        29.95R
Rockford       CLOUDY    70  68  93 E3        29.96S
$$


CITY           SKY/WX    TMP DP  RH WIND       PRES   REMARKS
Burlington     CLOUDY    69  68  96 NE12      29.99F
Cedar Rapids   CLOUDY    68  67  96 S9        29.94S
Des Moines     CLOUDY    69  63  81 E9        29.90R THUNDER
Kirksville     CLOUDY    74  70  87 S7        29.93R
Ottumwa        TSTM      69  69 100 W5        29.93S FOG
St Louis       PTCLDY    77  70  79 S6        29.99R
$$


CITY           SKY/WX    TMP DP  RH WIND       PRES   REMARKS
Terre Haute    CLEAR     68  66  93 SE3       30.03R FOG
Evansville     CLEAR     70  69  97 CALM      30.03R
Indianapolis   CLOUDY    71  69  93 SE3       30.05R
Lafayette      PTCLDY    68  68 100 CALM      30.01R
Madison        CLOUDY    72  70  93 SW6       29.95R
Milwaukee      CLOUDY    71  66  84 SW3       29.95R
$$






USA.gov is the U.S. government's official web portal to all federal, state and local government web resources and services.